Regional Weather Roundup
Issued by NWS

Current Version | Previous Version | Graphics & Text | Print | Product List | Glossary On
Versions: 1 2 3 4 5 6 7 8 9 10 11 12 13 14 15 16 17 18 19 20 21 22 23 24 25 26 27 28 29 30 31 32 33 34 35 36 37 38 39 40 41 42 43 44 45 46 47 48 49 50
000
ASHW40 PHFO 250143
RWRHI

WEATHER ROUNDUP FOR HAWAII
NATIONAL WEATHER SERVICE HONOLULU HI
300 PM HST MON NOV 24 2014

THIS IS AN AUTOMATED REPORT THAT HAS NOT BEEN QUALITY CONTROLLED.

NOTE..."FAIR" INDICATES FEW OR NO CLOUDS BELOW 12,000 FEET WITH NO
SIGNIFICANT WEATHER AND/OR OBSTRUCTIONS TO VISIBILITY.

* - THESE SITES REPORT LIMITED FIELDS

HIZ001>004-250200-
KAUAI-NIIHAU-

CITY           SKY/WX    TMP DP  RH WIND       PRES   REMARKS
LIHUE APT      CLOUDY    73  58  59 N16       29.93S
PORT ALLEN*      N/A     81 N/A N/A SE8         N/A
POIPU*           N/A     79 N/A N/A VRB12G24    N/A
PRINCEVILLE*     N/A     72 N/A N/A MISG        N/A
KOKOLE POINT*  NOT AVBL
MOLOAA DAIRY*  NOT AVBL
WAIMEA HTS*      N/A     81  54  39 NE6G12      N/A
PUU OPAE*        N/A     70  57  64 NE1G15      N/A
PUU LUA*       NOT AVBL
MAKAHA RIDGE*  NOT AVBL
$$

HIZ005>011-250200-
OAHU-

CITY           SKY/WX    TMP DP  RH WIND       PRES   REMARKS
HONOLULU       PTSUNNY   77  62  59 N20       29.89S
KALAELOA       CLOUDY    74  61  63 N10G26    29.90S
KANEOHE MCB    CLOUDY    74  64  71 N18G24    29.92S
WHEELER FIELD  PTSUNNY   70  61  74 N13G24    29.92S
BELLOWS*         N/A    N/A N/A N/A W1G24       N/A
KAHUKU*          N/A    N/A N/A N/A NW5G12      N/A
WHEELER*       NOT AVBL
WAIANAE HARBOR NOT AVBL
DILLINGHAM*      N/A     70  59  68 N1G9        N/A
KAHUKU TRN*      N/A     72  57  60 NW5G14      N/A
KAWAILOA*        N/A     66  61  82 VRB10G17    N/A
KII*             N/A     75  61  60 NW12G18     N/A
MAKUA RANGE*     N/A     75  59  57 E12G25      N/A
OAHU FOREST NW   N/A    N/A N/A N/A CALM        N/A
SCHOFIELD BRK*   N/A     64  57  77 MISG        N/A
SCHOFIELD S*   NOT AVBL
WAIANAE VLY*     N/A     73  59  60 N12G30      N/A
KUAOKALA*        N/A     72  55  56 CALM        N/A
HONOULIUULI*   NOT AVBL
MOKUOLOE IS*     N/A    N/A N/A N/A MISG        N/A
PALEHUA*         N/A     79  61  53 CALM        N/A
WAIAWA PHB*    NOT AVBL
$$

HIZ012>013-250200-
MOLOKAI-

CITY           SKY/WX    TMP DP  RH WIND       PRES   REMARKS
MOLOKAI AIRPT  CLOUDY    73  65  75 N14G20    29.91S
KALAUPAPA      NOT AVBL
MAKAPULAPAI*     N/A     70  68  94 E6          N/A
MOLOKAI 1*       N/A     63  63 100 VRB8G22     N/A
PUU ALII*        N/A     58  58  99 W2          N/A
$$

HIZ016-250200-
KAHOOLAWE-

CITY           SKY/WX    TMP DP  RH WIND       PRES   REMARKS
KAHOOLAWE*       N/A     72 N/A N/A NE16G24     N/A
HAKIOAWA*      NOT AVBL
HONOKANAIA*      N/A     82  68  62 N13G24    29.88S
KANELOA*         N/A     77  68  73 N18G30    29.09F
KEALIALALO*    NOT AVBL
LUA MAKIKA*    NOT AVBL
$$

HIZ014>015-250200-
LANAI-

CITY           SKY/WX    TMP DP  RH WIND       PRES   REMARKS
LANAI CITY       N/A    N/A N/A N/A MISG        N/A
LANAI 1*         N/A     70  68  94 VRB21G33    N/A
$$

HIZ017>028-250200-
MAUI-

CITY           SKY/WX    TMP DP  RH WIND       PRES   REMARKS
KAHULUI        PTSUNNY   75  66  73 N14G22    29.90R
KAPALUA-W MAUI PTSUNNY   73  66  78 N16G28    29.90
HANA AIRPORT   RAIN      70  68  94 W6        29.94R VSB 1
HANA*            N/A     72 N/A N/A W6G12       N/A
HALEAKALA SUMM   N/A     54  27  35 SW8G22      N/A
MAALAEA BAY*   NOT AVBL
HALEAKALA*     NOT AVBL
KAUPO GAP*       N/A    N/A N/A N/A W3          N/A
KULA 1*          N/A     61  55  80 NW6G17      N/A
$$

HIZ023>026-250200-
BIG ISLAND OF HAWAII COAST AND LOWER SLOPES-

CITY           SKY/WX    TMP DP  RH WIND       PRES   REMARKS
KAILUA KONA    MOSUNNY   82  67  60 NW7       29.85F
HILO           MOSUNNY   82  68  62 NE10      29.85S
HONOKAA*       NOT AVBL
KAWAIHAE MWT*    N/A     82 N/A N/A W5          N/A
KAWAIHAE*        N/A     81 N/A N/A W5          N/A
SOUTH POINT*     N/A     77 N/A N/A W15G22      N/A
UPOLU AIRPORT*   N/A    N/A N/A N/A SW6G12      N/A
KAMUELA*       CLOUDY    73  61  64 W1        30.00R
HAKALAU*         N/A     55  53  92 E2          N/A
KALOKO-HONOKO*   N/A     82  68  61 W10       29.84S
PALI 2*          N/A     75  63  64 S5G12       N/A
KEALAKOMO*       N/A     82  68  61 S10         N/A
KAUPULEHU*       N/A    N/A N/A N/A NW3G10      N/A
KAPAPALA*        N/A     79  64  60 CALM        N/A
LOWER KAHUKU*    N/A     75  64  69 S3G10       N/A
PUHE CS*       NOT AVBL
PUHO CS*         N/A     82  66  57 W5G13       N/A
PTA KEAMUKU*     N/A     68  61  77 CALM        N/A
WAIKOLOA*        N/A    N/A N/A N/A W5G10       N/A
$$

HIZ027>028-250200-
BIG ISLAND OF HAWAII INTERIOR AND SUMMMITS-

CITY           SKY/WX    TMP DP  RH WIND       PRES   REMARKS
BRADSHAW FIELD MOSUNNY   63  54  71 SW7       30.20S
MK VISITOR CEN NOT AVBL
MAUNA KEA*       N/A     39  12  33 NW39        N/A  WCI  26
MAUNA LOA*       N/A     50  37  62 MISG        N/A
MAUNA LOA 1*   NOT AVBL
PTA KIPUKA*      N/A     61  57  88 NW5G12      N/A
PTA RANGE 17*    N/A     61  55  82 NW7G14      N/A
PTA WEST*        N/A     61  59  94 NW3G9       N/A
NENE CABIN*      N/A    N/A N/A N/A SE5G10      N/A
AHUMOA*          N/A     55  55  98 S3G9        N/A
PTA PORTABLE*  NOT AVBL
PUU MALI*      NOT AVBL
$$

HIC003-250200-
NORTHWEST ISLANDS-

CITY           SKY/WX    TMP DP  RH WIND       PRES   REMARKS
MIDWAY ISLAND  MOSUNNY   73  61  64 S16       30.10F
MIDWAY NOS*    NOT AVBL
FRENCH FRIGATE NOT AVBL
$$

PHZ110>124-180-250200-
BUOY REPORTS

STATION/POSITION TIME  TEMP    WIND        PRES    WAVE   SWELL
                       AIR SEA DIR/SP/G            HT/PER HT/DIR
                 (UTC) (F)     (DEG/KT/KT) (MB)    (FT/S) (FT/D)
BUOY 51001       NOT AVBL
BUOY 51101       0100   71 78  360/ 19/ 25 1014.5F  13/10
BUOY 51100       0100   74 78  320/ 17/ 23 1010.5
BUOY 51003       0100   76 81   20/ 19/ 25 1011.5F  10/ 7   7
BUOY 51004       NOT AVBL
BARBERS PT BUOY  NOT AVBL
WAIMEA BAY BUOY  0100      80                N/A    11/13   7/310
KAILUA BAY BUOY  0100      79                N/A     8/ 9   3/ 60
LANAI BUOY       0100      80                N/A     4/14   2/230
BARBERS PT 2     0100      79                N/A     6/13   3/320
PAUWELA MAUI     0100      79                N/A     8/13   5/320
HILO             0100      80                N/A     8/10   5/100
KANEOHE BAY BUOY 0100      79                N/A     8/ 9   3/ 20
HANALEI KAUAI    NOT AVBL
KAHULUI HARBOR   0100   72 79  340/ 17/ 20 1012.4R
HONOLULU HARBOR  0100   75     360/  8/ 12 1012.6R
KILO NALU        NOT AVBL
HILO HARBOR      0100   79      10/ 10/ 12 1010.4R
MOKUOLOE         0100   74 78  330/ 14/ 19 1013.2R
NAWILIWILI       0100      80                N/A
WHOTS BUOY       NOT AVBL
BUOY 51028       NOT AVBL
$$

......................KEY........................................
  SKY/WX - SKY CONDITIONS/PRESENT WEATHER
  TMP    - TEMPERATURE IN FAHRENHEIT
  DWPT   - DEWPOINT IN FAHRENHEIT
  RH     - RELATIVE HUMIDITY IN PERCENT
  WIND   - DIRECTION AND SPEED /MPH FOR ISLANDS...KTS FOR BUOYS/
  PRES   - MEAN SEA LEVEL PRESSURE IN INCHES OF HG
  VSB    - VISIBILITY IN MILES
  HX     - HEAT INDEX
  WCI    - WIND CHILL INDEX
  VRB    - VARIABLE WIND DIRECTION
  N/A    - NOT AVAILABLE


USA.gov is the U.S. government's official web portal to all federal, state and local government web resources and services.